Regional Weather Roundup
Issued by NWS

Home | Current Version | Previous Version | Graphics & Text | Print | Product List | Glossary On
Versions: 1 2 3 4 5 6 7 8 9 10 11 12 13 14 15 16 17 18 19 20 21 22 23 24 25 26 27 28 29 30 31 32 33 34 35 36 37 38 39 40 41 42 43 44 45 46 47 48 49 50
000
ASUS45 KABQ 251301
RWRNM
NEW MEXICO REGIONAL WEATHER ROUNDUP
NATIONAL WEATHER SERVICE ALBUQUERQUE NM
700 AM MDT WED APR 25 2018

NOTE: "FAIR" MEANS FEW OR NO CLOUDS BELOW 12,000 FEET AGL WITH NO
       SIGNIFICANT WEATHER OR OBSTRUCTIONS TO VISION.

      THIS PRODUCT IS RELEASED AS TWO VERSIONS.  ONE VERSION NEAR
      THE TOP OF THE HOUR CONTAINING PRELIMINARY DATA FROM ALBUQUERQUE
      AND OTHER STATIONS.  A FINAL VERSION WITH ADDITIONAL DATA IS
      ISSUED ABOUT 10 MINUTES AFTER THE HOUR.

NMZ501-503-504-510>518-251400-
NORTHWEST PLATEAU/NORTHCENTRAL MOUNTAINS

CITY           SKY/WX    TMP DP  RH WIND       PRES   REMARKS
FARMINGTON     FAIR      44  11  26 W12       30.20R
LOS ALAMOS     CLOUDY    42  33  70 SW5       30.33S
SANTA FE       CLOUDY    40  30  67 S8        30.31R WCI  34
TAOS           CLOUDY    40  23  50 E5        30.35R
ANGEL FIRE     CLOUDY    30  26  83 CALM      30.36R

$$
NMZ402-403-502-505>509-251400-
WESTCENTRAL MOUNTAINS/SOUTHWEST MOUNTAINS

CITY           SKY/WX    TMP DP  RH WIND       PRES   REMARKS
GALLUP         FAIR      44  16  32 CALM      30.26R
GRANTS         FAIR      37  29  74 S3        30.29S
SILVER CITY    FAIR      53  12  19 E8        30.17R

$$
NMZ407-409-411-412-251400-
SOUTHERN DESERTS

CITY           SKY/WX    TMP DP  RH WIND       PRES   REMARKS
DEMING         FAIR      57  34  41 NE17      30.14R
LAS CRUCES     FAIR      54  34  46 N5        30.16F
HOLLOMAN AFB   FAIR      49  36  61 S14       30.21R
ALAMOGORDO     FAIR      50  36  57 S17       30.21R
T OR C         FAIR      49  35  58 N23G31    30.21R

$$
NMZ519>523-251400-
CENTRAL VALLEYS/CENTRAL HIGHLANDS

CITY           SKY/WX    TMP DP  RH WIND       PRES   REMARKS
ALBUQUERQUE    FAIR      46  32  58 E24       30.26R
DOUBLE EAGLE   CLEAR     39  30  70 N3        30.29R
MORIARTY ARPT  CLOUDY    42  32  67 E5        30.35R
CLINES CORNERS CLOUDY    34  27  75 E9        30.34R WCI  27
BELEN          FAIR      46  33  61 NW9       30.28R
SOCORRO        FAIR      46  33  61 NE13      30.28R

$$
NMZ524>526-539-540-251400-
SOUTHCENTRAL MOUNTAINS

CITY           SKY/WX    TMP DP  RH WIND       PRES   REMARKS
RUIDOSO        NOT AVBL

$$
NMZ527>531-251400-
NORTHEAST HIGHLANDS/NORTHEAST PLAINS

CITY           SKY/WX    TMP DP  RH WIND       PRES   REMARKS
LAS VEGAS      CLOUDY    36  25  64 E7        30.34R WCI  30
RATON          FAIR      33  25  72 N8        30.33R WCI  26
CLAYTON        MOCLDY    36  32  85 N10       30.34R WCI  28

$$
NMZ532>537-251400-
EASTCENTRAL PLAINS

CITY           SKY/WX    TMP DP  RH WIND       PRES   REMARKS
SANTA ROSA     CLOUDY    42  30  62 NE9       30.34R
TUCUMCARI      CLOUDY    43  32  65 NE14      30.35R
CANNON AFB     CLOUDY    38  38 100 NE24G35   30.35R WCI  27
CLOVIS AIRPORT CLOUDY    37  34  89 N22G31    30.35R WCI  26

$$
NMZ028-029-538-251400-
SOUTHEAST PLAINS

CITY           SKY/WX    TMP DP  RH WIND       PRES   REMARKS
ROSWELL        CLOUDY    43  41  93 N14       30.35R
ARTESIA        DRIZZLE   43  43 100 N15       30.36R
CARLSBAD       LGT RAIN  45  41  86 N21       30.34R FOG
HOBBS          CLOUDY    41  39  93 N20G31    30.30R FOG


$$




USA.gov is the U.S. government's official web portal to all federal, state and local government web resources and services.